Regional Weather Roundup
Issued by NWS Newport/Morehead, NC

Current Version | Previous Version | Graphics & Text | Print | Product List | Glossary Off
Versions: 1 2 3 4 5 6 7 8 9 10 11 12 13 14 15 16 17 18 19 20 21 22 23 24 25 26 27 28 29 30 31 32 33 34 35 36 37 38 39 40 41 42 43 44 45 46 47 48 49 50

000
ASUS42 KMHX 122222
RWRMHX
WEATHER ROUNDUP FOR EASTERN NORTH CAROLINA
NATIONAL WEATHER SERVICE NEWPORT/MOREHEAD CITY NC
600 PM EDT SAT JUL 12 2014

NOTE: "FAIR" INDICATES FEW OR NO CLOUDS BELOW 12,000 FEET
WITH NO SIGNIFICANT WEATHER AND/OR OBSTRUCTIONS TO VISIBILITY

NCZ015>017-031-032-045>047-102-103-122300-
NORTH COAST

CITY           SKY/WX    TMP DP  RH WIND       PRES   REMARKS
EDENTON        PTSUNNY   81  71  71 E7        30.18S
ELIZABETH CITY SUNNY     81  70  69 SE8       30.19S
KITTY HAWK     PTCLDY    77  69  77 NE3       30.18F
MANTEO         NOT AVBL

$$

NCZ045>047-081-094-103-104-122300-
CENTRAL COAST

CITY           SKY/WX    TMP DP  RH WIND       PRES   REMARKS
FRISCO         SUNNY     81  69  67 NE6       30.18F
SWANQUARTER      N/A     81 N/A N/A E3G9      30.15S

$$

NCZ095-097-098-100-101-122300-
SOUTHERN COAST

CITY           SKY/WX    TMP DP  RH WIND       PRES   REMARKS
BEAUFORT       SUNNY     82  70  66 E7        30.17S
CEDAR ISLAND     N/A     81 N/A N/A E6        30.21S
JACKSONVILLE   MOSUNNY   82  72  71 SE8       30.16S
NEWPORT        NOT AVBL
PINEY ISLAND   CLEAR     83  73  72 E8        30.17S
WILMINGTON     SUNNY     86  71  60 S7        30.15F


$$

NCZ011>013-027>030-043-044-078>080-089-090>093-098-122300-
COASTAL PLAIN

CITY           SKY/WX    TMP DP  RH WIND       PRES   REMARKS
AHOSKIE        SUNNY     85  67  56 CALM      30.17F
CLINTON        MOSUNNY   89  73  59 E3        30.14F
ELIZABETHTOWN  MOSUNNY   84  72  67 SE8       30.14S
GOLDSBORO      NOT AVBL
GREENVILLE     SUNNY     88  70  55 NE5       30.17F
HAVELOCK       PTSUNNY   80  74  81 S6        30.18S
KENANSVILLE    SUNNY     86  72  62 CALM      30.16F
KINSTON        SUNNY     88  66  48 NE7       30.16F
NEW BERN       MOSUNNY   86  70  58 SE8       30.17S
RICHLANDS      CLOUDY    75  70  83 W8        30.17R
ROANOKE RAPIDS NOT AVBL
ROCKY MOUNT    SUNNY     88  69  53 VRB5      30.16F
WASHINGTON     SUNNY     85  68  56 NE6       30.16F
WHITEVILLE     SUNNY     87  71  59 S6        30.14F

$$

AMZ130-135-150-152-154-156-158-170-250-252-270-ANZ085-086-088-633-658-670-122300-
MARINE OBSERVATIONS

STATION/POSITION TIME  TEMP    WIND        PRES    WAVE   SWELL
                       AIR SEA DIR/SP/G            HT/PER HT/PER
                 (UTC) (F)     (DEG/KT/KT) (MB)    (FT/S) (FT/S)
CHESAPEAKE LIGHT NOT AVBL
BUOY 44014       2200   76 79   80/  4/  6 1022.2    2/ 8   2/ 8
DUCK             2200   79 72   80/  5/  6 1021.7
2E DUCK          2100                        N/A     2/ 8
OREGON INLET     2200   77 79   30/  5/  8 1022.3
BUOY 44095       2200      76                N/A     2/ 7
HATTERAS CG      2200   79 83   60/  5/  7 1022.1
DIAMOND BUOY     2200          VRB  4/  8  1021.6    2/ 6   2/ 6
17S OCRACOKE INL NOT AVBL
CAPE LOOKOUT     2200   80     100/  5/  6 1021.7
BEAUFORT LAB     2200   81 83  160/  8/ 11 1021.3
30 SE NEW RIVER  2200   82 85   50/  2/  2 1021.9    2/ 7   2/ 7
5 SE WRIGHTSVILL 2200   78 83  160/  6/  8 1021.9
FRYING PAN BUOY  NOT AVBL
BUOY 41001       NOT AVBL
BUOY 41002       2129   80 85   50/  6/  8 1022.2    3/ 7   2/ 7
BUOY 41004       2200   79 82  160/  4/  4 1020.4    2/ 9   2/ 9

$$


USA.gov is the U.S. government's official web portal to all federal, state and local government web resources and services.